C13LL CYXU-CYXU

Flight info

Callsign C13LL
Flight time 0h 18m
Altitude VFR
Route PATTERN
Aircraft C185/L-DOV/C

Departure

Time 2026-04-24 02:28
Airport London International Airport (CYXU)

Arrival

Time 2026-04-24 02:47
Airport London International Airport (CYXU)
Time Latitude Longitude Altitude Speed Heading
2026-04-24 02:19 43.02985 -81.14975 899 ft 0 kts 225°
2026-04-24 02:20 43.02982 -81.14982 899 ft 0 kts 271°
2026-04-24 02:20 43.02987 -81.14994 899 ft 8 kts 335°
2026-04-24 02:21 43.03038 -81.14935 898 ft 13 kts 29°
2026-04-24 02:21 43.03080 -81.14944 898 ft 6 kts 322°
2026-04-24 02:21 43.03165 -81.15044 898 ft 23 kts 319°
2026-04-24 02:21 43.03296 -81.15202 902 ft 26 kts 318°
2026-04-24 02:22 43.03446 -81.15377 903 ft 30 kts 317°
2026-04-24 02:22 43.03608 -81.15576 900 ft 32 kts 319°
2026-04-24 02:22 43.03765 -81.15768 899 ft 28 kts 317°
2026-04-24 02:22 43.03912 -81.15941 902 ft 28 kts 320°
2026-04-24 02:23 43.04040 -81.16015 907 ft 15 kts
2026-04-24 02:23 43.04057 -81.16013 907 ft 0 kts
2026-04-24 02:27 43.04133 -81.15935 909 ft 20 kts 71°
2026-04-24 02:27 43.04037 -81.15780 905 ft 42 kts 142°
2026-04-24 02:28 43.03633 -81.15311 1008 ft 105 kts 140°
2026-04-24 02:28 43.03033 -81.14581 1366 ft 120 kts 139°
2026-04-24 02:28 43.02409 -81.13829 1837 ft 121 kts 140°
2026-04-24 02:28 43.01784 -81.13051 1922 ft 116 kts 139°
2026-04-24 02:29 43.01419 -81.12134 1904 ft 111 kts 96°
2026-04-24 02:29 43.01660 -81.11185 1921 ft 110 kts 51°
2026-04-24 02:29 43.02348 -81.10763 1910 ft 113 kts
2026-04-24 02:29 43.03077 -81.11064 1955 ft 108 kts 327°
2026-04-24 02:30 43.03653 -81.11711 1970 ft 114 kts 314°
2026-04-24 02:30 43.04260 -81.12595 2036 ft 134 kts 309°
2026-04-24 02:30 43.04874 -81.13568 2064 ft 137 kts 308°
2026-04-24 02:30 43.05504 -81.14556 2093 ft 137 kts 310°
2026-04-24 02:31 43.06173 -81.15482 2070 ft 138 kts 314°
2026-04-24 02:31 43.06857 -81.16400 2069 ft 138 kts 313°
2026-04-24 02:31 43.07546 -81.17316 2092 ft 135 kts 324°
2026-04-24 02:31 43.08427 -81.17375 2184 ft 132 kts 27°
2026-04-24 02:32 43.08868 -81.16387 2239 ft 126 kts 101°
2026-04-24 02:32 43.08231 -81.15956 2252 ft 121 kts 206°
2026-04-24 02:32 43.07559 -81.16685 2179 ft 128 kts 221°
2026-04-24 02:32 43.06912 -81.17507 2202 ft 126 kts 220°
2026-04-24 02:33 43.06116 -81.18026 2068 ft 132 kts 185°
2026-04-24 02:33 43.05319 -81.17432 1717 ft 135 kts 134°
2026-04-24 02:33 43.04688 -81.16589 1222 ft 114 kts 150°
2026-04-24 02:33 43.04178 -81.15950 979 ft 93 kts 139°
2026-04-24 02:34 43.03734 -81.15411 910 ft 73 kts 139°
2026-04-24 02:34 43.03406 -81.15016 912 ft 58 kts 139°
2026-04-24 02:34 43.02970 -81.14521 1152 ft 100 kts 141°
2026-04-24 02:34 43.02385 -81.13875 1574 ft 113 kts 142°
2026-04-24 02:35 43.01740 -81.13197 1891 ft 120 kts 144°
2026-04-24 02:35 43.01191 -81.12309 2047 ft 132 kts 108°
2026-04-24 02:35 43.01440 -81.11140 2098 ft 134 kts 45°
2026-04-24 02:35 43.02283 -81.10699 2102 ft 136 kts
2026-04-24 02:36 43.03118 -81.11138 2246 ft 122 kts 317°
2026-04-24 02:36 43.03775 -81.11943 2210 ft 128 kts 315°
2026-04-24 02:36 43.04417 -81.12735 2193 ft 122 kts 316°
2026-04-24 02:36 43.05043 -81.13513 2153 ft 122 kts 315°
2026-04-24 02:37 43.05649 -81.14322 2033 ft 123 kts 313°
2026-04-24 02:37 43.06145 -81.15246 1973 ft 121 kts 290°
2026-04-24 02:37 43.06284 -81.16351 1844 ft 117 kts 263°
2026-04-24 02:37 43.05885 -81.17225 1647 ft 110 kts 199°
2026-04-24 02:38 43.05176 -81.17011 1417 ft 110 kts 153°
2026-04-24 02:38 43.04590 -81.16435 1168 ft 101 kts 138°
2026-04-24 02:38 43.03931 -81.16299 1277 ft 120 kts 208°
2026-04-24 02:38 43.03363 -81.17210 1678 ft 133 kts 233°
2026-04-24 02:39 43.02841 -81.18277 2048 ft 129 kts 235°
2026-04-24 02:39 43.02398 -81.19245 2199 ft 115 kts 236°
2026-04-24 02:39 43.01980 -81.20169 2317 ft 114 kts 238°
2026-04-24 02:39 43.01492 -81.20883 2427 ft 111 kts 175°
2026-04-24 02:40 43.01108 -81.20437 2450 ft 117 kts 118°
2026-04-24 02:40 43.00924 -81.19358 2541 ft 117 kts 97°
2026-04-24 02:40 43.00937 -81.18216 2551 ft 125 kts 70°
2026-04-24 02:40 43.01588 -81.17449 2524 ft 129 kts 13°
2026-04-24 02:41 43.02448 -81.17635 2500 ft 123 kts 329°
2026-04-24 02:41 43.03155 -81.18244 2517 ft 120 kts 324°
2026-04-24 02:41 43.03869 -81.18859 2469 ft 122 kts 325°
2026-04-24 02:41 43.04598 -81.19440 2435 ft 123 kts 331°
2026-04-24 02:42 43.05411 -81.19593 2369 ft 117 kts 17°
2026-04-24 02:42 43.05982 -81.18917 2164 ft 107 kts 57°
2026-04-24 02:42 43.05867 -81.17989 1753 ft 112 kts 135°
2026-04-24 02:42 43.05272 -81.17280 1427 ft 118 kts 140°
2026-04-24 02:43 43.04668 -81.16554 1218 ft 110 kts 141°
2026-04-24 02:43 43.04084 -81.15836 1003 ft 111 kts 139°
2026-04-24 02:43 43.03580 -81.15225 914 ft 81 kts 140°
2026-04-24 02:43 43.03221 -81.14796 901 ft 59 kts 139°
2026-04-24 02:44 43.02826 -81.14324 1080 ft 97 kts 139°
2026-04-24 02:44 43.02286 -81.13656 1499 ft 113 kts 139°
2026-04-24 02:44 43.01915 -81.12755 1965 ft 116 kts 82°
2026-04-24 02:44 43.02509 -81.11934 2128 ft 133 kts 26°
2026-04-24 02:45 43.03429 -81.11948 2191 ft 137 kts 335°
2026-04-24 02:45 43.04156 -81.12774 2209 ft 137 kts 310°
2026-04-24 02:45 43.04771 -81.13762 2245 ft 136 kts 306°
2026-04-24 02:45 43.05332 -81.14777 2288 ft 135 kts 303°
2026-04-24 02:46 43.05809 -81.15857 2249 ft 127 kts 277°
2026-04-24 02:46 43.05352 -81.16752 1621 ft 124 kts 189°
2026-04-24 02:46 43.04576 -81.16415 1106 ft 111 kts 153°
2026-04-24 02:46 43.04065 -81.15810 933 ft 85 kts 139°
2026-04-24 02:47 43.03688 -81.15355 903 ft 61 kts 138°
2026-04-24 02:47 43.03440 -81.15061 906 ft 24 kts 143°
2026-04-24 02:47 43.03333 -81.15096 904 ft 16 kts 222°
2026-04-24 02:47 43.03296 -81.15204 902 ft 13 kts 318°
2026-04-24 02:48 43.03364 -81.15281 902 ft 12 kts 320°
2026-04-24 02:48 43.03443 -81.15376 902 ft 17 kts 317°
2026-04-24 02:48 43.03536 -81.15491 900 ft 19 kts 317°
2026-04-24 02:48 43.03536 -81.15560 900 ft 2 kts 228°